Мульда

Россия / Республика Коми     67°29′03″N   63°40′52″E
темп.,
°C
ветер,
м/с
пор.,
м/с
влажн.,
%
обл.,
%
осадки,
мм/ч
давл.,
гПа
погр.,
м
22 октября, пт
пт2200:00−3юв51180100 0.0 995299
03:00−3юв51377100 0.0 994408
06:00−2юв61280100 0.0 992515
09:00−2ююв71279100 0.0 991811
12:00−2ююв71180100 0.0 990806
15:00−2ююв5118591 0.1 989447
18:00−3юв4108956 0.0 988270
21:00−4юв4109066 0.0 986226
23 октября, сб
сб2300:00−5вюв4989100 0.0 984238
03:00−3вюв4986100 0.0 983287
06:00−3вюв3797100 1.1 981272
09:00−2вюв3697100 3.0 981274
12:00−2вюв1297100 1.3 981193
15:00−2с2398100 2.5 983154
18:00−3сз51096100 0.5 986410
21:00−4зсз5119389 0.6 989369
24 октября, вс
вс2400:00−4з6129373 0.1 990319
03:00−5з6139582 0.1 992296
06:00−5зсз6129633 0.1 995260
09:00−5зсз511935 0.1 997251
12:00−5з510915 0.0 1000210
15:00−6з499228 0.0 1002136
18:00−8з479211 0.0 100496
21:00−9зюз359348 0.0 100564
25 октября, пн
пн2500:00−10ююз229641 0.0 100528
03:00−9ююз349896 0.0 100559
06:00−6ююз369795 0.5 1004183
09:00−6юз489686 0.6 1005232
12:00−6юз489587 0.0 1006220
15:00−8юз489892 0.0 1006175
18:00−9зюз37967 0.1 100788
21:00−10юз489561 0.1 1007109
26 октября, вт
вт2600:00−8ююз5119593 0.0 1007228
03:00−8юз5996100 0.1 1006255
06:00−8юз4797100 0.3 1006141
09:00−7юз3696100 0.4 1006189
12:00−6юз479598 0.9 1005323
15:00−7зюз3697100 1.3 1005160
18:00−9сз119899 0.1 100510
21:00−7с3490100 0.2 1005219